DAL1192 KBNA-KTUL

Flight info

Callsign DAL1192
Flight time 0h 58m
Altitude 32000
Route PARDN3 HODJS OMDUE Q36 RZC/N0361F160 V140 PRYOR
Aircraft A319/M-SDE3FGHIRWY/LB1

Departure

Time 2026-05-05 07:38
Airport Nashville International Airport (KBNA)

Arrival

Time 2026-05-05 08:36
Airport Tulsa International Airport (KTUL)
Time Latitude Longitude Altitude Speed Heading
2026-05-05 07:24 36.13404 -86.66970 569 ft 0 kts 104°
2026-05-05 07:25 36.13405 -86.66976 569 ft 4 kts 104°
2026-05-05 07:25 36.13412 -86.67008 569 ft 4 kts 108°
2026-05-05 07:25 36.13421 -86.67040 572 ft 4 kts 115°
2026-05-05 07:26 36.13435 -86.67068 573 ft 4 kts 137°
2026-05-05 07:26 36.13452 -86.67079 571 ft 2 kts 197°
2026-05-05 07:26 36.13457 -86.67077 571 ft 0 kts 197°
2026-05-05 07:32 36.13447 -86.67081 571 ft 3 kts 202°
2026-05-05 07:33 36.13439 -86.67116 569 ft 5 kts 276°
2026-05-05 07:33 36.13454 -86.67176 571 ft 9 kts 288°
2026-05-05 07:33 36.13478 -86.67269 568 ft 13 kts 288°
2026-05-05 07:33 36.13507 -86.67394 565 ft 17 kts 285°
2026-05-05 07:34 36.13542 -86.67538 568 ft 16 kts 288°
2026-05-05 07:34 36.13573 -86.67654 575 ft 13 kts 288°
2026-05-05 07:34 36.13613 -86.67734 576 ft 11 kts 349°
2026-05-05 07:34 36.13684 -86.67710 577 ft 10 kts 17°
2026-05-05 07:35 36.13740 -86.67725 579 ft 7 kts 298°
2026-05-05 07:35 36.13744 -86.67739 581 ft 0 kts 288°
2026-05-05 07:37 36.13747 -86.67751 579 ft 3 kts 288°
2026-05-05 07:37 36.13762 -86.67808 583 ft 10 kts 288°
2026-05-05 07:37 36.13731 -86.67879 579 ft 13 kts 196°
2026-05-05 07:37 36.13565 -86.67945 576 ft 53 kts 198°
2026-05-05 07:38 36.12959 -86.68181 583 ft 126 kts 198°
2026-05-05 07:38 36.11955 -86.68570 764 ft 164 kts 197°
2026-05-05 07:38 36.10836 -86.68987 1405 ft 172 kts 196°
2026-05-05 07:38 36.09687 -86.69419 2195 ft 172 kts 199°
2026-05-05 07:39 36.08689 -86.70209 2905 ft 175 kts 227°
2026-05-05 07:39 36.08142 -86.71632 3380 ft 202 kts 256°
2026-05-05 07:39 36.08416 -86.73486 3864 ft 244 kts 287°
2026-05-05 07:39 36.09374 -86.75352 4661 ft 261 kts 295°
2026-05-05 07:40 36.10314 -86.77254 5816 ft 259 kts 291°
2026-05-05 07:40 36.11122 -86.79255 6843 ft 262 kts 289°
2026-05-05 07:40 36.11885 -86.81323 7769 ft 266 kts 289°
2026-05-05 07:40 36.12649 -86.83437 8712 ft 272 kts 291°
2026-05-05 07:41 36.13431 -86.85590 9677 ft 277 kts 292°
2026-05-05 07:41 36.14240 -86.87804 10369 ft 291 kts 293°
2026-05-05 07:41 36.15106 -86.90165 10854 ft 310 kts 293°
2026-05-05 07:41 36.16001 -86.92576 11635 ft 317 kts 294°
2026-05-05 07:42 36.16914 -86.95028 12501 ft 322 kts 294°
2026-05-05 07:42 36.17856 -86.97558 13360 ft 326 kts 294°
2026-05-05 07:42 36.18810 -87.00120 14157 ft 329 kts 294°
2026-05-05 07:42 36.19774 -87.02708 14924 ft 332 kts 294°
2026-05-05 07:43 36.20743 -87.05307 15704 ft 333 kts 294°
2026-05-05 07:43 36.21718 -87.07919 16507 ft 335 kts 293°
2026-05-05 07:43 36.22695 -87.10548 17284 ft 337 kts 293°
2026-05-05 07:43 36.23677 -87.13198 18073 ft 339 kts 293°
2026-05-05 07:44 36.24662 -87.15864 18762 ft 341 kts 293°
2026-05-05 07:44 36.25653 -87.18539 19427 ft 343 kts 293°
2026-05-05 07:44 36.26651 -87.21241 20106 ft 345 kts 292°
2026-05-05 07:44 36.27393 -87.24076 20744 ft 347 kts 281°
2026-05-05 07:45 36.27865 -87.27019 21402 ft 349 kts 281°
2026-05-05 07:45 36.28334 -87.29941 22040 ft 352 kts 281°
2026-05-05 07:45 36.28814 -87.32923 22684 ft 354 kts 281°
2026-05-05 07:45 36.29297 -87.35922 23335 ft 356 kts 281°
2026-05-05 07:46 36.29785 -87.38948 23903 ft 359 kts 281°
2026-05-05 07:46 36.30271 -87.41988 24440 ft 361 kts 281°
2026-05-05 07:46 36.30755 -87.45050 24971 ft 362 kts 281°
2026-05-05 07:46 36.31242 -87.48123 25496 ft 364 kts 281°
2026-05-05 07:47 36.31528 -87.51241 26003 ft 366 kts 272°
2026-05-05 07:47 36.31414 -87.54409 26510 ft 369 kts 268°
2026-05-05 07:47 36.31254 -87.57587 27009 ft 371 kts 269°
2026-05-05 07:47 36.31094 -87.60783 27502 ft 372 kts 269°
2026-05-05 07:48 36.30932 -87.63994 27985 ft 374 kts 269°
2026-05-05 07:48 36.30769 -87.67219 28466 ft 376 kts 269°
2026-05-05 07:48 36.30607 -87.70462 28941 ft 378 kts 269°
2026-05-05 07:48 36.30446 -87.73722 29405 ft 379 kts 269°
2026-05-05 07:49 36.30286 -87.76959 29875 ft 381 kts 269°
2026-05-05 07:49 36.30119 -87.80244 30276 ft 383 kts 270°
2026-05-05 07:49 36.29948 -87.83544 30669 ft 384 kts 270°
2026-05-05 07:49 36.29775 -87.86849 31065 ft 385 kts 270°
2026-05-05 07:50 36.29598 -87.90166 31457 ft 386 kts 270°
2026-05-05 07:50 36.29420 -87.93486 31813 ft 387 kts 270°
2026-05-05 07:50 36.29068 -88.00004 31915 ft 364 kts 271°
2026-05-05 07:51 36.28899 -88.03064 31909 ft 350 kts 271°
2026-05-05 07:51 36.28739 -88.06045 31910 ft 345 kts 271°
2026-05-05 07:51 36.28428 -88.11953 31907 ft 341 kts 271°
2026-05-05 07:52 36.28119 -88.17797 31892 ft 339 kts 271°
2026-05-05 07:52 36.27800 -88.23631 31891 ft 341 kts 271°
2026-05-05 07:53 36.27646 -88.26619 31892 ft 354 kts 271°
2026-05-05 07:53 36.27497 -88.29716 31889 ft 366 kts 272°
2026-05-05 07:53 36.27232 -88.35941 31890 ft 366 kts 272°
2026-05-05 07:54 36.27112 -88.39142 31888 ft 378 kts 272°
2026-05-05 07:54 36.26987 -88.42437 31888 ft 386 kts 272°
2026-05-05 07:54 36.26718 -88.49141 31879 ft 390 kts 272°
2026-05-05 07:55 36.26438 -88.55785 31888 ft 388 kts 272°
2026-05-05 07:55 36.26150 -88.62456 31889 ft 388 kts 272°
2026-05-05 07:56 36.25866 -88.69128 31878 ft 387 kts 272°
2026-05-05 07:56 36.25582 -88.75791 31865 ft 387 kts 272°
2026-05-05 07:57 36.25289 -88.82446 31857 ft 387 kts 272°
2026-05-05 07:57 36.24989 -88.89093 31859 ft 386 kts 272°
2026-05-05 07:58 36.24693 -88.95734 31860 ft 384 kts 272°
2026-05-05 07:58 36.24395 -89.02331 31859 ft 382 kts 272°
2026-05-05 07:59 36.23937 -89.12211 31873 ft 379 kts 272°
2026-05-05 07:59 36.23320 -89.25174 31871 ft 376 kts 272°
2026-05-05 08:00 36.22699 -89.38044 31868 ft 374 kts 272°
2026-05-05 08:00 36.22061 -89.50888 31856 ft 373 kts 272°
2026-05-05 08:01 36.21426 -89.63637 31850 ft 373 kts 272°
2026-05-05 08:01 36.20770 -89.76459 31850 ft 373 kts 272°
2026-05-05 08:02 36.20085 -89.89306 31841 ft 374 kts 272°
2026-05-05 08:02 36.19395 -90.02139 31799 ft 374 kts 272°
2026-05-05 08:03 36.18698 -90.14977 31813 ft 374 kts 272°
2026-05-05 08:03 36.17981 -90.27809 31827 ft 374 kts 272°
2026-05-05 08:04 36.17245 -90.40638 31821 ft 374 kts 271°
2026-05-05 08:04 36.16505 -90.53494 31831 ft 375 kts 271°
2026-05-05 08:05 36.15742 -90.66308 31829 ft 376 kts 271°
2026-05-05 08:05 36.14972 -90.79192 31813 ft 375 kts 271°
2026-05-05 08:06 36.14237 -90.92063 31802 ft 371 kts 276°
2026-05-05 08:06 36.14847 -91.04783 31824 ft 371 kts 277°
2026-05-05 08:07 36.15388 -91.17528 31804 ft 371 kts 277°
2026-05-05 08:07 36.15846 -91.28130 31810 ft 371 kts 277°
2026-05-05 08:08 36.16395 -91.40905 31824 ft 372 kts 277°
2026-05-05 08:08 36.16928 -91.53688 31806 ft 372 kts 277°
2026-05-05 08:09 36.17436 -91.66437 31810 ft 371 kts 277°
2026-05-05 08:09 36.17933 -91.79180 31806 ft 370 kts 277°
2026-05-05 08:10 36.18425 -91.91818 31806 ft 370 kts 277°
2026-05-05 08:10 36.18889 -92.04536 31790 ft 370 kts 276°
2026-05-05 08:11 36.19343 -92.17291 31781 ft 371 kts 276°
2026-05-05 08:11 36.19786 -92.30082 31784 ft 371 kts 276°
2026-05-05 08:12 36.20219 -92.42832 31791 ft 370 kts 276°
2026-05-05 08:12 36.20637 -92.55566 31784 ft 370 kts 276°
2026-05-05 08:13 36.21035 -92.68286 31759 ft 370 kts 275°
2026-05-05 08:13 36.21425 -92.81058 31768 ft 372 kts 275°
2026-05-05 08:14 36.21802 -92.93836 31775 ft 374 kts 274°
2026-05-05 08:14 36.22166 -93.06735 31754 ft 376 kts 274°
2026-05-05 08:15 36.22534 -93.19859 31803 ft 382 kts 274°
2026-05-05 08:15 36.22874 -93.33001 31798 ft 382 kts 274°
2026-05-05 08:16 36.23207 -93.46147 31785 ft 381 kts 273°
2026-05-05 08:16 36.23517 -93.59250 31763 ft 380 kts 273°
2026-05-05 08:17 36.23810 -93.72260 31755 ft 380 kts 273°
2026-05-05 08:17 36.24108 -93.85345 31781 ft 381 kts 274°
2026-05-05 08:18 36.24384 -93.98472 31781 ft 381 kts 274°
2026-05-05 08:18 36.24634 -94.11580 31774 ft 380 kts 274°
2026-05-05 08:19 36.24389 -94.24666 31793 ft 380 kts 272°
2026-05-05 08:19 36.24187 -94.31215 31455 ft 384 kts 272°
2026-05-05 08:19 36.24014 -94.37800 30172 ft 370 kts 271°
2026-05-05 08:20 36.23858 -94.43934 28836 ft 346 kts 271°
2026-05-05 08:20 36.23712 -94.49650 27996 ft 324 kts 271°
2026-05-05 08:20 36.23568 -94.55203 27122 ft 319 kts 271°
2026-05-05 08:20 36.23427 -94.60641 26241 ft 313 kts 272°
2026-05-05 08:21 36.23283 -94.66012 25322 ft 310 kts 271°
2026-05-05 08:21 36.23139 -94.71336 24320 ft 309 kts 271°
2026-05-05 08:21 36.22987 -94.76646 23362 ft 308 kts 270°
2026-05-05 08:21 36.22827 -94.81943 22322 ft 307 kts 270°
2026-05-05 08:22 36.22667 -94.87368 20620 ft 324 kts 269°
2026-05-05 08:22 36.22500 -94.93091 18958 ft 340 kts 268°
2026-05-05 08:22 36.22320 -94.99045 17281 ft 352 kts 267°
2026-05-05 08:22 36.22133 -95.05197 15533 ft 362 kts 267°
2026-05-05 08:23 36.21937 -95.11491 13902 ft 369 kts 267°
2026-05-05 08:23 36.21735 -95.17784 12228 ft 371 kts 267°
2026-05-05 08:23 36.21575 -95.22709 10930 ft 370 kts 267°
2026-05-05 08:23 36.21487 -95.25883 10127 ft 367 kts 267°
2026-05-05 08:24 36.21410 -95.29026 9313 ft 364 kts 267°
2026-05-05 08:24 36.21347 -95.32147 8460 ft 359 kts 267°
2026-05-05 08:24 36.21309 -95.35218 7632 ft 355 kts 267°
2026-05-05 08:24 36.21315 -95.38205 6815 ft 338 kts 267°
2026-05-05 08:25 36.21346 -95.41041 6122 ft 319 kts 267°
2026-05-05 08:25 36.21401 -95.43661 5870 ft 289 kts 267°
2026-05-05 08:25 36.21475 -95.46030 5740 ft 261 kts 267°
2026-05-05 08:25 36.21566 -95.48185 5452 ft 243 kts 267°
2026-05-05 08:26 36.21879 -95.50231 4884 ft 248 kts 285°
2026-05-05 08:26 36.22711 -95.52121 4301 ft 250 kts 291°
2026-05-05 08:26 36.23627 -95.53950 4058 ft 253 kts 291°
2026-05-05 08:26 36.24573 -95.55829 4022 ft 259 kts 291°
2026-05-05 08:27 36.25529 -95.57731 4026 ft 261 kts 291°
2026-05-05 08:27 36.26484 -95.59638 4024 ft 261 kts 291°
2026-05-05 08:27 36.27343 -95.61349 4023 ft 260 kts 291°
2026-05-05 08:28 36.27826 -95.62308 4014 ft 260 kts 291°
2026-05-05 08:28 36.28787 -95.64217 3978 ft 261 kts 291°
2026-05-05 08:28 36.29742 -95.66120 3879 ft 260 kts 292°
2026-05-05 08:28 36.30686 -95.68007 3786 ft 261 kts 292°
2026-05-05 08:29 36.31654 -95.69952 3685 ft 261 kts 292°
2026-05-05 08:29 36.32587 -95.71847 3603 ft 260 kts 292°
2026-05-05 08:29 36.33491 -95.73703 3509 ft 244 kts 291°
2026-05-05 08:30 36.35169 -95.77047 3311 ft 219 kts 292°
2026-05-05 08:30 36.35961 -95.78584 3217 ft 211 kts 292°
2026-05-05 08:30 36.36742 -95.80086 3130 ft 207 kts 292°
2026-05-05 08:30 36.37509 -95.81592 3090 ft 206 kts 292°
2026-05-05 08:31 36.38270 -95.83099 3097 ft 205 kts 290°
2026-05-05 08:31 36.38636 -95.84700 3099 ft 185 kts 256°
2026-05-05 08:31 36.38222 -95.86112 3097 ft 171 kts 226°
2026-05-05 08:31 36.37298 -95.86957 3124 ft 163 kts 200°
2026-05-05 08:32 36.36228 -95.87147 3107 ft 155 kts 188°
2026-05-05 08:32 36.35176 -95.87214 3050 ft 148 kts 188°
2026-05-05 08:32 36.34188 -95.87277 2931 ft 135 kts 189°
2026-05-05 08:32 36.33276 -95.87338 2804 ft 128 kts 187°
2026-05-05 08:33 36.32396 -95.87397 2659 ft 126 kts 187°
2026-05-05 08:33 36.31526 -95.87456 2512 ft 125 kts 187°
2026-05-05 08:33 36.30659 -95.87514 2360 ft 125 kts 185°
2026-05-05 08:33 36.29795 -95.87571 2211 ft 124 kts 184°
2026-05-05 08:34 36.28933 -95.87629 2065 ft 123 kts 184°
2026-05-05 08:34 36.28084 -95.87686 1912 ft 123 kts 183°
2026-05-05 08:34 36.27229 -95.87742 1770 ft 123 kts 181°
2026-05-05 08:34 36.26374 -95.87800 1612 ft 123 kts 181°
2026-05-05 08:35 36.25510 -95.87857 1443 ft 125 kts 180°
2026-05-05 08:35 36.24648 -95.87914 1281 ft 127 kts 179°
2026-05-05 08:35 36.23809 -95.87970 1126 ft 129 kts 176°
2026-05-05 08:35 36.22896 -95.88038 965 ft 133 kts 180°
2026-05-05 08:36 36.21977 -95.88098 817 ft 132 kts 177°
2026-05-05 08:36 36.21057 -95.88161 674 ft 127 kts 174°
2026-05-05 08:36 36.20308 -95.88204 666 ft 85 kts 184°
2026-05-05 08:36 36.19885 -95.88233 668 ft 39 kts 182°
2026-05-05 08:37 36.19749 -95.88247 669 ft 0 kts 203°
2026-05-05 08:37 36.19745 -95.88250 669 ft 0 kts 208°